| time (UTC) | temp F | wind direction | speed MPH | gust MPH | rain 1hr in | rain 24hr in | rain mn in | humidity % | barometer mb |
| 20260902100052 | 61 | 328 | 0.0 | 2.0 | 0.00 | 0.20 | 0.00 | 93 | 1021.9 |
| 20260902094541 | 61 | 337 | 0.0 | 1.0 | 0.00 | 0.20 | 0.00 | 93 | 1021.7 |
| 20260902093031 | 61 | 305 | 0.0 | 1.0 | 0.00 | 0.20 | 0.00 | 93 | 1021.6 |
| 20260902091512 | 61 | 309 | 0.0 | 1.0 | 0.00 | 0.20 | 0.00 | 93 | 1021.5 |
| 20260902090012 | 61 | 286 | 0.0 | 1.0 | 0.00 | 0.22 | 0.00 | 94 | 1021.3 |
| 20260902084605 | 61 | 120 | 0.0 | 0.0 | 0.00 | 0.22 | 0.00 | 94 | 1021.3 |
| 20260902083107 | 61 | 120 | 0.0 | 1.0 | 0.00 | 0.22 | 0.00 | 94 | 1021.4 |
| 20260902081557 | 61 | 146 | 0.0 | 2.0 | 0.00 | 0.22 | 0.00 | 94 | 1021.1 |
| 20260902080112 | 61 | 257 | 0.0 | 1.0 | 0.00 | 0.23 | 0.00 | 94 | 1021.2 |
| 20260902074557 | 61 | 291 | 0.0 | 1.0 | 0.00 | 0.23 | 0.00 | 94 | 1021.0 |
| 20260902073055 | 61 | 234 | 0.0 | 0.0 | 0.00 | 0.23 | 0.00 | 94 | 1021.2 |
| 20260902071555 | 61 | 195 | 0.0 | 1.0 | 0.00 | 0.23 | 0.00 | 94 | 1021.0 |
| 20260902070053 | 61 | 238 | 0.0 | 0.0 | 0.00 | 0.24 | 0.00 | 95 | 1021.0 |
| 20260902064536 | 61 | 297 | 0.0 | 1.0 | 0.00 | 0.24 | 0.00 | 95 | 1020.8 |
| 20260902063036 | 61 | 290 | 0.0 | 1.0 | 0.00 | 0.24 | 0.00 | 95 | 1020.9 |
| 20260902061521 | 61 | 101 | 0.0 | 2.0 | 0.00 | 0.24 | 0.00 | 95 | 1020.7 |
| 20260902060018 | 61 | 276 | 0.0 | 0.0 | 0.00 | 0.24 | 0.00 | 95 | 1020.7 |
| 20260902054558 | 61 | 13 | 0.0 | 0.0 | 0.00 | 0.24 | 0.00 | 95 | 1021.0 |
| 20260902053058 | 61 | 15 | 0.0 | 1.0 | 0.00 | 0.24 | 0.00 | 95 | 1021.0 |
| 20260902051539 | 61 | 271 | 0.0 | 0.0 | 0.00 | 0.24 | 0.00 | 95 | 1020.9 |
| 20260902050037 | 61 | 271 | 0.0 | 0.0 | 0.00 | 0.24 | 0.00 | 95 | 1020.7 |
| 20260902044520 | 61 | 274 | 0.0 | 1.0 | 0.00 | 0.24 | 0.00 | 95 | 1020.6 |
| 20260902043019 | 61 | 274 | 0.0 | 0.0 | 0.00 | 0.24 | 0.00 | 95 | 1020.6 |
| 20260902041600 | 61 | 5 | 0.0 | 0.0 | 0.00 | 0.24 | 0.00 | 95 | 1020.6 |
| 20260902034540 | 61 | 315 | 0.0 | 0.0 | 0.00 | 0.24 | 0.24 | 95 | 1020.3 |
| 20260902033047 | 61 | 160 | 0.0 | 0.0 | 0.00 | 0.24 | 0.24 | 94 | 1020.0 |
| 20260902031521 | 61 | 143 | 0.0 | 0.0 | 0.00 | 0.24 | 0.24 | 94 | 1020.4 |
| 20260902030020 | 61 | 91 | 0.0 | 3.0 | 0.00 | 0.24 | 0.24 | 94 | 1020.3 |
| 20260902024601 | 61 | 96 | 0.0 | 1.0 | 0.00 | 0.24 | 0.24 | 94 | 1020.1 |
| 20260902023102 | 61 | 78 | 0.0 | 2.0 | 0.00 | 0.24 | 0.24 | 94 | 1019.9 |
| 20260902021547 | 61 | 302 | 0.0 | 3.0 | 0.00 | 0.24 | 0.24 | 94 | 1019.9 |
| 20260902020047 | 62 | 342 | 0.0 | 1.0 | 0.00 | 0.24 | 0.24 | 95 | 1019.7 |
| 20260902014545 | 61 | 281 | 0.0 | 1.0 | 0.00 | 0.24 | 0.24 | 94 | 1019.5 |
| 20260902013044 | 61 | 131 | 0.0 | 2.0 | 0.00 | 0.24 | 0.24 | 94 | 1019.3 |
| 20260902011543 | 61 | 119 | 0.0 | 4.0 | 0.00 | 0.24 | 0.24 | 94 | 1018.8 |
| 20260902010047 | 61 | 131 | 0.0 | 4.0 | 0.00 | 0.24 | 0.24 | 94 | 1019.1 |
| 20260902004542 | 61 | 321 | 1.0 | 5.0 | 0.00 | 0.24 | 0.24 | 94 | 1018.8 |
| 20260902003042 | 61 | 116 | 0.0 | 4.0 | 0.00 | 0.24 | 0.24 | 94 | 1018.8 |
| 20260902001526 | 61 | 120 | 1.0 | 5.0 | 0.02 | 0.24 | 0.24 | 94 | 1018.7 |
| 20260902000027 | 61 | 295 | 0.0 | 1.0 | 0.02 | 0.24 | 0.24 | 94 | 1018.6 |
| 20260901234505 | 62 | 286 | 0.0 | 2.0 | 0.03 | 0.24 | 0.24 | 94 | 1018.7 |
| 20260901233005 | 62 | 82 | 0.0 | 2.0 | 0.08 | 0.24 | 0.24 | 94 | 1018.6 |
| 20260901231545 | 62 | 101 | 0.0 | 1.0 | 0.06 | 0.22 | 0.22 | 93 | 1018.6 |
| 20260901230047 | 62 | 89 | 1.0 | 4.0 | 0.06 | 0.22 | 0.22 | 93 | 1018.5 |
| 20260901224532 | 63 | 103 | 1.0 | 5.0 | 0.05 | 0.21 | 0.21 | 93 | 1018.3 |
| 20260901223030 | 63 | 155 | 0.0 | 1.0 | 0.00 | 0.16 | 0.16 | 92 | 1018.0 |
| 20260901221531 | 63 | 304 | 0.0 | 5.0 | 0.00 | 0.16 | 0.16 | 91 | 1018.0 |
| 20260901220029 | 64 | 131 | 0.0 | 2.0 | 0.00 | 0.16 | 0.16 | 91 | 1017.9 |
| 20260901214525 | 64 | 106 | 0.0 | 5.0 | 0.00 | 0.16 | 0.16 | 91 | 1017.9 |
| 20260901213052 | 64 | 96 | 0.0 | 3.0 | 0.00 | 0.16 | 0.16 | 92 | 1017.6 |
| 20260901211536 | 65 | 77 | 0.0 | 4.0 | 0.00 | 0.16 | 0.16 | 92 | 1017.6 |
| 20260901210023 | 65 | 13 | 0.0 | 5.0 | 0.00 | 0.16 | 0.16 | 93 | 1017.3 |
| 20260901204503 | 65 | 65 | 3.0 | 9.0 | 0.00 | 0.16 | 0.16 | 93 | 1017.1 |
| 20260901203006 | 65 | 69 | 0.0 | 9.0 | 0.00 | 0.16 | 0.16 | 93 | 1016.9 |
| 20260901201544 | 65 | 300 | 0.0 | 7.0 | 0.00 | 0.16 | 0.16 | 94 | 1016.8 |
| 20260901200052 | 66 | 175 | 2.0 | 6.0 | 0.00 | 0.16 | 0.16 | 94 | 1016.7 |
| 20260901194524 | 66 | 101 | 2.0 | 8.0 | 0.00 | 0.16 | 0.16 | 94 | 1016.8 |
| 20260901193024 | 67 | 206 | 2.0 | 5.0 | 0.00 | 0.16 | 0.16 | 94 | 1016.5 |
| 20260901191502 | 67 | 45 | 0.0 | 5.0 | 0.00 | 0.16 | 0.16 | 93 | 1016.4 |
| 20260901190005 | 68 | 122 | 2.0 | 9.0 | 0.00 | 0.16 | 0.16 | 92 | 1016.4 |
| 20260901184603 | 72 | 88 | 0.0 | 1.0 | 0.00 | 0.16 | 0.16 | 92 | 1016.1 |
| 20260901183051 | 72 | 126 | 0.0 | 1.0 | 0.00 | 0.16 | 0.16 | 92 | 1016.2 |
| 20260901181546 | 72 | 236 | 0.0 | 2.0 | 0.00 | 0.16 | 0.16 | 93 | 1016.3 |
| 20260901180043 | 72 | 85 | 0.0 | 1.0 | 0.00 | 0.16 | 0.16 | 93 | 1016.5 |
| 20260901174542 | 72 | 47 | 0.0 | 3.0 | 0.00 | 0.16 | 0.16 | 93 | 1016.6 |
| 20260901173038 | 72 | 211 | 0.0 | 4.0 | 0.00 | 0.16 | 0.16 | 93 | 1016.3 |
| 20260901171535 | 72 | 84 | 0.0 | 2.0 | 0.00 | 0.16 | 0.16 | 94 | 1016.2 |
| 20260901170034 | 72 | 101 | 0.0 | 4.0 | 0.00 | 0.16 | 0.16 | 94 | 1016.6 |
| 20260901164533 | 72 | 226 | 0.0 | 3.0 | 0.00 | 0.16 | 0.16 | 94 | 1016.7 |
| 20260901163013 | 71 | 105 | 0.0 | 3.0 | 0.00 | 0.16 | 0.16 | 94 | 1016.9 |
| 20260901161512 | 71 | 89 | 0.0 | 3.0 | 0.00 | 0.16 | 0.16 | 93 | 1017.0 |
| 20260901160055 | 72 | 226 | 0.0 | 2.0 | 0.00 | 0.16 | 0.16 | 94 | 1017.2 |
| 20260901154553 | 71 | 138 | 0.0 | 2.0 | 0.01 | 0.16 | 0.16 | 94 | 1017.3 |
| 20260901153042 | 72 | 109 | 0.0 | 2.0 | 0.03 | 0.16 | 0.16 | 95 | 1017.2 |
| 20260901151540 | 71 | 142 | 0.0 | 0.0 | 0.04 | 0.16 | 0.16 | 94 | 1017.3 |
| 20260901150038 | 71 | 131 | 0.0 | 3.0 | 0.04 | 0.16 | 0.16 | 95 | 1017.3 |
| 20260901144535 | 70 | 141 | 0.0 | 3.0 | 0.06 | 0.15 | 0.15 | 95 | 1017.5 |
| 20260901143037 | 70 | 243 | 0.0 | 5.0 | 0.07 | 0.13 | 0.13 | 95 | 1017.7 |
| 20260901141539 | 70 | 70 | 0.0 | 1.0 | 0.06 | 0.12 | 0.12 | 95 | 1017.6 |
| 20260901140031 | 69 | 83 | 0.0 | 1.0 | 0.06 | 0.12 | 0.12 | 95 | 1017.8 |
| 20260901134530 | 69 | 96 | 0.0 | 0.0 | 0.03 | 0.09 | 0.09 | 95 | 1017.8 |
| 20260901133011 | 69 | 96 | 0.0 | 2.0 | 0.00 | 0.06 | 0.06 | 95 | 1017.8 |
| 20260901131521 | 69 | 331 | 0.0 | 1.0 | 0.00 | 0.06 | 0.06 | 95 | 1017.7 |
| 20260901130059 | 69 | 72 | 0.0 | 2.0 | 0.01 | 0.06 | 0.06 | 95 | 1017.8 |
| 20260901124558 | 69 | 72 | 0.0 | 4.0 | 0.01 | 0.06 | 0.06 | 96 | 1017.9 |
| 20260901123104 | 69 | 136 | 0.0 | 4.0 | 0.01 | 0.06 | 0.06 | 96 | 1017.8 |
| 20260901121556 | 68 | 269 | 0.0 | 1.0 | 0.01 | 0.06 | 0.06 | 96 | 1017.8 |
| 20260901120057 | 68 | 130 | 0.0 | 1.0 | 0.00 | 0.06 | 0.05 | 96 | 1017.8 |
| 20260901114556 | 68 | 170 | 0.0 | 3.0 | 0.00 | 0.06 | 0.05 | 96 | 1017.8 |
| 20260901113102 | 68 | 131 | 0.0 | 1.0 | 0.00 | 0.06 | 0.05 | 96 | 1017.7 |
| 20260901111554 | 68 | 224 | 0.0 | 1.0 | 0.00 | 0.06 | 0.05 | 96 | 1017.8 |
| 20260901110036 | 68 | 203 | 0.0 | 1.0 | 0.00 | 0.06 | 0.05 | 96 | 1017.8 |
| 20260901104535 | 68 | 91 | 0.0 | 1.0 | 0.00 | 0.06 | 0.05 | 96 | 1017.7 |
| 20260901103025 | 68 | 199 | 0.0 | 1.0 | 0.00 | 0.06 | 0.05 | 95 | 1017.6 |
| 20260901101525 | 68 | 103 | 0.0 | 1.0 | 0.00 | 0.06 | 0.05 | 95 | 1017.7 |